Погода в Октябрьском

Россия / Томская область     56°43′30″N   85°26′05″E
темп.,
°C
ветер,
м/с
пор.,
м/с
влажн.,
%
обл.,
%
осадки,
мм/ч
давл.,
гПа
погр.,
м
8 мая, сб
сб801:00+8зсз310590 0.0 1014599
04:00+5юз247195 0.0 101487
07:00+6зюз4126729 0.0 1014615
10:00+11з6124518 0.0 10131940
13:00+13зсз7133366 0.0 10132392
16:00+14сз61333100 0.0 10122655
19:00+12ссз41347100 0.0 10131963
22:00+6ссз277215 0.0 1016254
9 мая, вс
вс901:00+3сз38786 0.0 1017349
04:00+1сз27895 0.0 1018200
07:00+2ссз36835 0.0 1019278
10:00+7с355469 0.0 10191383
13:00+9с3541100 0.0 10202029
16:00+10ссв4541100 0.0 10211928
19:00+10св354580 0.0 10211630
22:00+5св277261 0.0 1023157
10 мая, пн
пн1001:00+2св27905 0.0 1024157
04:00+1св24935 0.0 102482
07:00+3св27765 0.0 1025196
10:00+9всв465643 0.0 10241277
13:00+10всв345499 0.0 10241517
16:00+13в36430 0.0 10221622
19:00+14св374620 0.0 10201900
22:00+8всв310718 0.0 1021281
11 мая, вт
вт1101:00+5св25845 0.0 102091
04:00+4всв2888100 0.0 1020163
07:00+5св387999 0.0 1019237
10:00+11всв5951100 0.0 10181253
13:00+15всв5840100 0.0 10172104
16:00+16всв5734100 0.0 10162416
19:00+15св464182 0.0 10161950
22:00+9ссв2862100 0.0 1018149
12 мая, ср
ср1201:00+8св31171100 0.0 1018325
04:00+6св31082100 0.0 1018275
07:00+6всв3982100 0.0 1019339
10:00+10всв4757100 0.0 1019784
13:00+13всв4640100 0.0 10191765
16:00+14всв4634100 0.0 10182033
19:00+13всв3540100 0.0 10191490
22:00+8всв2658100 0.0 1021116